Weather in Dragovo

Ukraine / Zakarpattia District     48°14′11″N   23°32′47″E
temp.,
°C
wind,
m/s
gust,
m/s
humid.,
%
clouds,
%
prec.,
mm/h
press.,
hPa
HPBL,
m
25 may, wed
wed2500:00+12ene2278100 0.0 101315
03:00+11ene2279100 0.0 101415
06:00+10ene228051 0.0 101415
09:00+16sse126548 0.0 1014300
12:00+20s2353100 0.0 1014901
15:00+22sw346193 0.0 10141071
18:00+21sw247821 1.3 1013929
21:00+17sse1189100 4.1 101313
26 may, thu
thu2600:00+14se2198100 7.5 101428
03:00+14nnw229889 12.0 101587
06:00+12nw23968 0.2 101892
09:00+14wnw23793 0.2 1020451
12:00+18wsw455610 0.0 10211403
15:00+19w565439 0.0 10211517
18:00+18sw256378 0.0 1020865
21:00+15ese227599 0.1 102020
27 may, fri
fri2700:00+12e22840 0.0 102112
03:00+10e11893 0.0 102211
06:00+9e119334 0.0 102111
09:00+15sse237558 0.0 1021408
12:00+17ssw357292 0.0 1019995
15:00+18sw488286 1.3 10171014
18:00+18sw498386 2.4 1015281
21:00+16w312874 6.4 1014290
28 may, sat
sat2800:00+12n23957 1.2 101452
03:00+10ne229210 1.3 101532
06:00+10nne228697 0.0 101435
09:00+13wsw117045 0.0 1014331
12:00+13sw4580100 0.5 1015547
15:00+12sw3683100 2.2 1016725
18:00+12ssw477698 0.2 1015361
21:00+10ssw269098 1.6 1017205
29 may, sun
sun2900:00+8ne2294100 1.1 101947
03:00+6ne229170 1.2 101922
06:00+5ne228857 0.0 101922
09:00+11e116799 0.0 1019335
12:00+15wsw2151100 0.0 10181206
15:00+16wsw3250100 0.0 10181409
18:00+14ssw456493 0.1 1018838
21:00+9e018951 0.4 101911